{"data":{"norad_id":49132,"epoch":"2026-05-25T03:29:54.633408Z","epoch_age_seconds":62615,"freshness":"FRESH","line1":"1 49132U 21082C   26145.14577122 -.00000413  00000+0 -26771-4 0  9995","line2":"2 49132  69.9993 101.5569 0003461 262.0800  97.9966 14.98332682257438","mean_motion":14.98332682,"eccentricity":0.0003461,"inclination_deg":69.9993,"raan_deg":101.5569,"arg_perigee_deg":262.08,"mean_anomaly_deg":97.9966,"bstar":-2.6771e-5,"rev_number":25743,"period_min":96.106827095159,"perigee_km":569.64213820397,"apogee_km":574.45305598208,"semimajor_km":6950.184597093,"source":"CELESTRAK","updated_at":"2026-05-25T13:38:16.764654Z"}}